Wind_Speed
27 27 28 29 33 30 27 18 20 23 15 21 19 25 28 24 32 10 18 18 17 15 16 16 15 18 19 17 15 14 13 10 8 7 7 9 7 5 4 4 2 3 3 4 5 6 7 8 10
30 31 32 35 36 33 21 22 22 19 17 21 21 27 28 33 32 32 19 17 16 15 16 16 16 19 20 19 17 15 14 11 8 8 8 10 9 7 6 5 4 4 5 5 5 7 9 11 13
32 33 36 39 37 33 18 21 25 22 22 12 24 35 40 36 36 37 25 24 16 14 16 17 17 19 20 20 18 17 15 12 10 10 10 10 9 8 7 6 5 5 6 7 8 10 12 14 16
36 37 38 40 35 26 23 23 24 26 32 16 21 41 45 48 36 47 9 25 12 13 15 18 19 18 20 22 20 19 17 14 12 10 10 9 9 8 7 7 7 6 7 8 10 12 13 15 17
38 40 41 41 35 29 28 28 28 27 29 28 19 34 41 48 46 39 34 16 13 14 16 18 21 20 19 19 22 20 18 16 12 10 10 10 9 8 8 8 8 7 8 9 11 13 14 17 19
40 42 44 43 37 33 33 33 32 30 28 30 16 30 40 45 44 34 25 12 19 20 21 20 23 23 22 20 22 21 19 17 14 12 11 11 10 10 10 9 9 9 10 11 12 15 17 20 21
42 45 46 44 42 38 36 37 37 33 31 34 22 26 45 36 31 28 24 22 27 28 23 23 23 26 25 24 23 22 19 20 17 13 10 9 11 11 11 10 10 10 12 12 13 15 18 20 21
44 50 51 51 49 44 40 41 43 41 35 37 32 25 40 41 34 34 27 28 28 31 29 23 25 26 27 27 26 25 22 23 19 12 12 11 11 11 12 12 12 11 12 13 14 14 17 19 19
49 57 55 50 51 51 45 46 49 47 44 45 35 33 38 43 37 42 40 33 29 32 29 30 27 28 27 31 28 26 22 22 20 15 13 12 11 13 12 13 12 12 11 12 13 14 17 20 24
56 59 56 52 54 56 51 52 52 54 54 50 37 39 43 47 50 53 44 33 33 31 30 30 29 30 31 31 33 29 25 23 22 16 14 13 12 14 14 14 13 13 12 13 15 15 20 23 25
57 65 58 58 60 62 61 57 58 59 58 55 39 41 45 52 53 57 53 31 35 33 33 32 29 30 32 33 33 29 26 23 20 16 15 15 14 14 15 15 16 15 15 17 16 19 21 23 29
59 59 60 58 57 63 67 67 64 63 62 51 41 47 52 57 59 55 55 41 33 35 32 32 28 29 31 32 32 29 26 24 21 20 17 17 14 14 17 16 18 18 19 17 17 22 23 24 24
51 51 54 57 56 56 64 68 68 67 65 56 41 47 46 58 64 60 58 53 42 36 34 33 30 29 31 31 31 27 24 23 21 19 17 17 14 16 17 18 19 20 20 19 21 23 24 26 27
40 43 45 49 54 54 58 68 69 67 67 64 52 44 43 54 65 68 64 56 48 41 41 33 36 31 31 29 27 26 23 22 21 20 19 17 15 20 21 21 20 22 18 24 25 25 26 27 29
36 41 42 44 43 49 53 61 68 66 72 71 59 53 50 51 60 66 62 58 49 46 40 33 36 35 29 30 27 24 22 19 18 19 19 19 18 21 23 23 21 20 21 26 27 24 26 28 29
33 36 38 34 43 43 47 56 59 66 75 79 65 58 60 53 64 66 58 61 52 51 42 39 35 41 34 32 27 23 19 20 20 20 24 22 21 24 24 22 21 22 21 24 27 27 29 28 30
25 32 37 38 42 43 47 50 48 57 67 82 72 61 58 60 63 53 58 60 55 50 45 39 38 43 41 38 36 32 26 24 24 23 27 25 25 25 24 21 25 23 25 30 27 29 28 31 35
28 26 24 39 43 46 41 52 45 50 57 79 77 67 65 65 55 60 43 64 60 50 48 43 39 42 43 40 36 30 26 26 23 20 26 30 28 26 26 29 24 20 25 26 24 25 28 32 36
26 26 34 28 33 46 50 49 49 51 52 67 80 75 67 70 71 62 44 41 55 51 49 42 39 37 40 29 29 27 36 22 22 23 26 29 30 30 31 28 22 25 26 25 26 30 31 34 38
40 37 35 30 34 46 47 52 49 51 54 53 77 73 71 73 77 71 60 63 47 61 53 45 36 32 22 21 22 20 19 21 31 32 29 32 34 27 32 20 22 23 21 24 28 31 35 40 44
25 26 28 29 33 47 48 50 47 48 49 54 63 72 77 68 70 70 70 69 67 43 59 48 36 30 29 28 23 22 26 22 27 16 31 32 15 9 10 18 23 22 26 30 31 36 41 46 47
21 19 26 31 24 46 42 49 51 46 42 51 55 74 74 71 71 69 70 76 72 51 57 43 36 31 29 27 26 24 16 16 21 5 7 11 14 13 11 16 20 23 26 30 35 38 40 42 46
18 17 24 26 21 42 42 46 45 38 42 45 52 52 70 76 70 70 71 68 52 55 43 31 33 33 31 30 27 24 22 18 15 14 17 22 22 18 20 21 21 24 29 33 36 39 43 47 49
14 16 16 11 13 42 35 39 34 42 43 39 47 45 49 66 68 65 66 58 45 50 34 32 33 34 33 31 30 28 26 24 20 21 19 22 19 21 23 21 22 26 30 35 38 43 47 52 57
15 21 18 10 12 33 29 40 37 29 34 33 42 44 42 51 55 59 60 58 46 39 28 29 33 33 31 30 31 29 28 25 24 25 27 25 22 20 19 22 26 30 34 38 41 47 51 53 56
21 22 24 18 7 10 43 28 28 29 29 27 40 43 40 44 52 58 58 49 41 39 38 36 37 37 35 33 31 30 30 29 28 30 23 26 27 20 22 25 28 32 36 41 46 51 55 52 53
22 24 33 28 9 16 6 6 24 30 27 24 36 37 40 40 46 54 55 50 48 45 45 43 41 39 38 35 35 33 32 31 26 19 26 29 26 23 26 27 31 35 40 44 49 51 51 50 48
17 17 32 20 20 4 6 13 31 32 32 32 33 32 38 37 40 45 51 52 50 42 44 42 45 44 42 40 39 37 34 27 27 35 30 25 26 26 27 28 33 38 42 46 50 54 53 48 49
20 25 31 16 11 19 8 18 33 35 27 24 29 27 36 39 44 46 46 49 41 39 43 46 46 44 44 42 39 33 29 29 35 32 29 28 27 26 29 32 36 39 44 49 52 51 51 50 51
14 21 35 40 25 6 7 26 31 18 19 30 32 32 34 43 40 41 44 45 42 50 49 43 47 46 42 38 36 31 37 35 31 25 26 27 26 28 30 33 38 42 47 50 53 51 49 50 47
Wind_Direction
238 240 246 247 244 245 231 224 212 212 209 248 249 266 271 257 239 245 174 198 223 220 221 220 221 218 217 220 223 225 214 214 203 213 235 241 241 246 264 292 321 352 350 9 22 21 18 1 355
240 239 240 246 247 248 240 232 233 220 225 247 275 291 282 280 246 237 222 199 213 217 218 225 227 224 222 223 223 224 221 212 213 219 233 242 245 251 267 281 297 325 333 346 347 344 345 344 347
244 240 241 243 247 248 243 239 233 220 220 288 282 280 281 271 264 260 166 183 211 218 217 226 226 233 228 227 224 224 225 215 209 224 227 234 239 248 266 281 299 321 328 330 334 331 335 338 342
257 252 248 250 250 247 241 232 230 230 224 198 268 276 277 277 264 252 202 156 182 227 222 229 230 230 234 233 226 228 226 217 213 226 242 248 248 253 262 281 294 313 325 333 334 333 334 335 338
260 260 257 258 257 249 239 230 227 223 226 216 234 269 274 277 274 275 268 206 204 229 230 227 232 229 231 241 239 232 230 221 217 222 239 244 251 264 272 280 293 306 321 336 342 338 337 338 338
260 259 259 262 260 252 242 233 227 229 221 194 226 263 269 274 275 272 274 239 247 222 231 232 233 229 240 233 247 239 235 227 219 221 233 246 253 259 273 282 294 309 324 338 343 341 345 342 338
269 266 265 262 258 248 243 235 230 223 222 201 197 262 270 267 277 269 261 244 238 241 228 230 231 232 233 239 241 239 241 237 226 229 234 257 266 266 275 284 296 312 324 334 344 346 345 341 336
267 267 265 264 264 258 244 236 235 221 212 201 198 244 266 265 265 263 237 228 237 237 232 238 231 226 229 231 234 234 238 241 238 227 234 239 257 268 277 285 299 313 325 335 337 343 345 329 325
267 268 268 267 264 261 245 236 230 229 211 204 204 225 246 248 258 253 245 233 230 238 234 238 230 227 224 229 230 231 229 238 237 232 233 247 255 265 276 289 300 312 322 328 321 333 333 322 336
268 270 272 263 257 254 247 234 232 229 221 201 221 222 235 239 245 246 247 237 233 238 232 230 226 222 220 226 225 231 227 230 232 232 237 242 251 267 280 289 300 296 311 307 307 328 329 321 325
263 269 261 251 247 244 240 233 227 227 223 206 217 231 231 238 242 243 244 241 230 236 240 219 220 219 222 228 223 224 228 227 229 227 232 244 250 263 273 283 290 289 292 295 321 324 315 319 320
263 261 257 254 245 240 236 231 225 222 223 198 207 219 234 234 241 242 241 233 227 235 246 219 224 222 217 224 223 221 223 226 228 229 228 241 249 259 275 280 281 286 291 308 318 317 314 315 320
263 258 251 248 244 236 233 231 225 219 215 193 191 215 228 238 238 241 240 236 227 228 233 230 223 220 218 218 221 221 223 226 232 237 240 246 255 263 268 273 280 287 299 309 299 302 299 312 321
259 256 253 251 245 237 230 228 226 219 207 191 189 206 215 234 237 236 237 240 234 233 232 242 226 220 221 217 220 221 222 223 233 239 245 252 255 265 266 275 279 287 309 296 301 300 313 315 321
263 257 253 249 247 248 238 230 225 217 207 194 192 194 215 224 233 236 234 238 237 233 231 233 224 221 212 215 215 218 221 229 241 252 253 252 251 262 270 276 286 299 296 301 299 308 316 314 320
269 264 256 250 249 243 247 238 223 218 207 201 192 195 205 218 227 233 225 237 232 231 228 225 220 217 207 218 214 222 224 234 240 247 252 253 259 263 265 278 288 281 287 303 302 307 309 310 313
282 265 257 246 246 243 240 241 222 223 213 206 197 195 201 211 225 235 223 232 234 232 229 226 225 239 215 212 209 211 219 231 239 241 256 262 262 261 269 268 265 274 288 295 301 302 307 311 311
284 283 262 249 240 236 230 236 223 221 217 207 200 198 201 205 213 220 215 224 232 232 230 228 222 231 222 214 222 215 228 234 248 255 257 261 259 260 259 260 262 280 283 284 294 300 305 307 305
286 285 287 269 258 233 232 233 220 219 219 209 204 203 202 206 220 222 206 210 227 221 223 224 229 228 229 229 237 238 233 227 249 258 256 256 252 253 253 262 282 264 281 289 294 304 304 305 300
285 280 278 268 271 230 226 228 225 217 217 210 205 203 202 207 226 226 228 228 213 210 206 211 213 222 211 211 218 235 250 254 256 252 245 255 272 273 265 268 279 282 286 294 299 297 299 298 299
285 290 280 261 270 216 217 221 220 215 212 209 204 201 202 204 224 225 228 229 227 181 211 209 208 213 217 229 235 237 226 250 274 299 243 251 247 252 249 270 280 281 290 292 296 295 301 305 305
309 287 283 272 281 217 207 216 218 214 208 206 205 199 203 206 217 222 225 233 227 235 206 185 204 214 223 227 225 225 241 268 290 267 233 236 273 243 274 264 272 288 292 297 303 306 308 309 312
320 295 287 295 267 210 192 212 216 210 214 202 202 206 203 211 217 227 222 232 229 236 232 196 200 216 225 227 229 237 250 265 267 262 240 237 251 258 260 263 286 292 299 304 307 312 314 314 314
303 297 293 308 250 199 185 211 209 214 221 207 203 206 202 201 212 221 224 229 221 221 206 201 206 215 224 232 236 244 254 264 264 256 242 238 245 247 268 273 280 290 298 306 309 313 316 318 317
315 340 335 321 289 205 193 219 208 221 229 213 208 208 204 200 208 220 221 223 222 223 218 217 212 217 224 230 239 245 253 260 260 254 255 250 265 261 273 275 284 292 299 303 309 313 319 319 320
351 332 348 318 3 191 196 222 206 214 224 197 198 210 210 209 213 222 222 218 221 217 215 218 219 219 223 228 235 241 246 250 247 251 249 258 263 266 268 274 281 290 300 305 312 314 318 320 317
335 7 1 358 332 177 191 134 167 193 212 192 189 208 215 209 212 218 217 210 210 210 207 213 217 220 222 227 232 238 246 253 261 246 252 267 270 266 270 277 287 296 301 308 311 315 314 321 317
324 333 351 357 344 40 135 178 158 177 192 180 173 191 201 204 212 216 210 208 206 207 200 214 216 217 221 224 228 233 241 246 252 255 261 269 269 267 273 282 289 294 302 305 306 311 317 323 321
355 343 349 342 315 298 181 167 162 172 192 190 180 197 206 203 196 206 212 211 204 203 213 209 213 216 220 224 229 233 236 235 241 250 253 260 266 270 277 281 288 296 302 306 312 316 320 319 319
358 345 351 349 21 341 246 180 165 170 196 203 199 194 198 188 188 196 207 205 204 206 209 209 211 214 220 227 232 231 233 238 245 251 257 265 269 269 276 288 294 300 305 310 315 318 317 315 314
Height
5861 5861 5860 5862 5864 5867 5874 5881 5883 5883 5883 5873 5876 5881 5879 5884 5885 5866 5883 5893 5900 5900 5904 5907 5909 5910 5911 5913 5916 5918 5919 5921 5922 5925 5926 5927 5927 5927 5927 5928 5926 5926 5925 5924 5924 5923 5923 5921 5920
5854 5855 5856 5853 5856 5861 5873 5878 5880 5884 5885 5874 5875 5875 5876 5874 5876 5881 5883 5892 5894 5900 5902 5905 5908 5909 5910 5912 5915 5917 5919 5920 5922 5924 5925 5926 5926 5927 5927 5927 5927 5926 5925 5925 5924 5923 5923 5921 5920
5848 5849 5849 5848 5851 5856 5870 5872 5876 5880 5881 5878 5875 5873 5871 5872 5874 5881 5859 5880 5893 5896 5900 5903 5906 5908 5909 5911 5914 5916 5918 5919 5921 5923 5923 5924 5925 5926 5926 5927 5926 5926 5925 5925 5924 5923 5922 5921 5919
5841 5842 5843 5841 5846 5857 5863 5866 5869 5874 5876 5872 5879 5869 5866 5868 5875 5881 5872 5869 5888 5895 5897 5901 5904 5906 5908 5910 5913 5915 5917 5919 5920 5922 5923 5923 5924 5925 5925 5926 5925 5925 5925 5924 5923 5922 5921 5919 5918
5833 5833 5834 5835 5843 5852 5856 5860 5862 5864 5870 5871 5871 5861 5858 5860 5867 5869 5872 5879 5883 5892 5896 5898 5902 5904 5906 5909 5912 5914 5916 5918 5920 5921 5922 5922 5923 5924 5924 5924 5924 5924 5924 5923 5922 5921 5920 5918 5916
5824 5825 5825 5828 5836 5843 5848 5852 5856 5861 5862 5865 5870 5858 5854 5854 5860 5867 5871 5875 5883 5889 5893 5895 5898 5901 5903 5905 5910 5913 5915 5917 5918 5920 5921 5922 5922 5922 5922 5923 5922 5922 5922 5922 5921 5920 5919 5916 5914
5814 5814 5815 5819 5825 5832 5839 5845 5848 5856 5861 5862 5864 5858 5851 5847 5851 5861 5870 5878 5880 5886 5889 5892 5895 5897 5900 5902 5906 5910 5913 5916 5917 5919 5920 5921 5921 5921 5921 5920 5920 5920 5920 5919 5918 5917 5916 5914 5911
5802 5799 5803 5807 5813 5820 5830 5836 5839 5844 5854 5861 5857 5851 5846 5847 5848 5858 5869 5877 5877 5881 5885 5889 5891 5893 5897 5900 5903 5907 5910 5913 5915 5917 5919 5918 5919 5919 5919 5919 5918 5918 5918 5917 5916 5914 5912 5909 5907
5785 5782 5790 5800 5801 5806 5818 5823 5828 5835 5839 5849 5852 5845 5841 5845 5840 5850 5861 5871 5876 5876 5881 5885 5887 5890 5893 5897 5900 5903 5906 5910 5912 5914 5916 5917 5916 5917 5916 5917 5916 5916 5915 5914 5913 5911 5909 5906 5906
5766 5767 5778 5787 5786 5789 5801 5809 5817 5817 5826 5836 5836 5839 5835 5838 5835 5839 5853 5865 5872 5871 5876 5880 5883 5886 5890 5893 5896 5900 5903 5906 5909 5911 5914 5914 5913 5914 5914 5914 5913 5913 5912 5910 5909 5909 5907 5902 5900
5751 5749 5760 5764 5767 5772 5781 5792 5800 5802 5810 5824 5823 5831 5828 5831 5830 5835 5842 5857 5866 5867 5871 5874 5878 5881 5885 5889 5892 5896 5900 5904 5906 5907 5910 5910 5910 5910 5911 5911 5909 5909 5909 5907 5907 5905 5902 5899 5894
5729 5733 5738 5743 5747 5752 5759 5769 5777 5788 5802 5807 5812 5816 5822 5821 5824 5827 5834 5849 5858 5865 5865 5870 5874 5877 5881 5885 5888 5891 5896 5900 5901 5904 5905 5906 5907 5907 5906 5906 5905 5905 5906 5906 5903 5900 5899 5894 5891
5714 5718 5718 5723 5729 5732 5740 5748 5763 5772 5789 5794 5800 5803 5811 5815 5817 5820 5825 5836 5850 5858 5862 5866 5869 5874 5876 5881 5884 5888 5892 5895 5897 5900 5902 5903 5903 5903 5903 5902 5902 5901 5902 5902 5900 5896 5894 5891 5886
5702 5702 5704 5709 5713 5715 5721 5729 5742 5762 5775 5778 5786 5791 5795 5804 5807 5813 5817 5827 5841 5851 5858 5862 5865 5872 5873 5877 5881 5884 5888 5891 5893 5895 5898 5898 5899 5897 5898 5898 5900 5898 5899 5894 5893 5890 5888 5884 5881
5690 5690 5694 5698 5704 5706 5713 5714 5724 5751 5759 5764 5773 5781 5785 5785 5795 5802 5813 5819 5831 5842 5850 5858 5860 5870 5870 5873 5876 5881 5884 5887 5889 5890 5893 5892 5894 5893 5894 5894 5895 5895 5893 5889 5886 5885 5883 5878 5874
5682 5682 5684 5693 5690 5697 5700 5701 5719 5735 5741 5752 5759 5766 5775 5774 5783 5791 5808 5808 5823 5830 5842 5850 5855 5863 5867 5869 5873 5876 5880 5882 5885 5887 5885 5888 5890 5890 5890 5891 5891 5889 5887 5886 5882 5880 5877 5873 5869
5672 5673 5674 5678 5679 5685 5685 5690 5709 5717 5726 5742 5748 5755 5764 5767 5770 5787 5801 5803 5811 5822 5834 5840 5847 5853 5863 5863 5866 5869 5875 5878 5880 5882 5881 5885 5886 5886 5887 5887 5885 5885 5884 5881 5879 5875 5873 5868 5864
5666 5665 5664 5666 5670 5669 5670 5677 5694 5701 5711 5725 5736 5746 5753 5759 5763 5783 5785 5793 5799 5814 5824 5830 5839 5845 5853 5859 5864 5865 5869 5873 5874 5878 5879 5879 5881 5882 5880 5879 5880 5881 5878 5876 5874 5871 5867 5863 5859
5656 5656 5656 5658 5656 5655 5659 5668 5675 5687 5696 5712 5724 5736 5742 5749 5760 5773 5768 5784 5792 5797 5814 5824 5833 5839 5846 5853 5858 5862 5864 5867 5870 5871 5875 5875 5874 5875 5873 5874 5878 5876 5873 5870 5867 5865 5861 5856 5851
5648 5645 5646 5646 5645 5644 5651 5656 5667 5670 5681 5698 5715 5725 5733 5742 5754 5765 5768 5781 5782 5787 5801 5813 5824 5832 5839 5845 5847 5852 5858 5862 5865 5866 5868 5869 5868 5870 5870 5869 5871 5869 5868 5864 5861 5857 5853 5849 5845
5641 5636 5634 5632 5632 5633 5641 5644 5652 5660 5670 5686 5698 5717 5724 5737 5746 5757 5761 5764 5770 5754 5784 5804 5818 5826 5834 5838 5843 5847 5850 5854 5857 5858 5863 5864 5864 5864 5865 5865 5865 5864 5861 5857 5855 5851 5848 5843 5838
5635 5628 5627 5626 5623 5623 5634 5635 5644 5654 5663 5675 5688 5704 5716 5727 5738 5745 5753 5750 5768 5776 5762 5772 5807 5820 5829 5835 5839 5842 5845 5848 5851 5853 5855 5859 5860 5860 5860 5860 5859 5858 5855 5851 5847 5844 5840 5835 5828
5632 5628 5626 5620 5617 5618 5624 5631 5644 5652 5660 5668 5680 5692 5710 5721 5730 5734 5745 5753 5774 5775 5777 5788 5803 5814 5823 5829 5834 5838 5841 5845 5848 5850 5851 5852 5853 5854 5855 5853 5851 5849 5846 5844 5842 5837 5831 5824 5818
5631 5626 5622 5619 5614 5617 5627 5632 5640 5648 5659 5668 5679 5691 5702 5712 5722 5727 5739 5751 5770 5779 5787 5790 5801 5810 5817 5823 5828 5834 5837 5841 5844 5844 5845 5847 5847 5849 5849 5846 5844 5842 5840 5837 5833 5827 5823 5815 5809
5633 5626 5622 5621 5618 5621 5628 5629 5642 5649 5658 5670 5678 5688 5697 5706 5714 5719 5733 5746 5763 5772 5779 5788 5799 5807 5812 5819 5824 5830 5833 5835 5836 5838 5840 5843 5842 5840 5840 5838 5837 5836 5834 5829 5824 5818 5812 5806 5797
5629 5629 5624 5622 5622 5624 5626 5623 5637 5648 5655 5664 5675 5684 5696 5705 5711 5719 5732 5751 5759 5767 5777 5785 5795 5802 5809 5814 5819 5823 5825 5827 5830 5832 5834 5834 5833 5834 5833 5832 5830 5830 5825 5820 5814 5808 5804 5799 5794
5633 5631 5629 5625 5622 5624 5628 5629 5634 5645 5653 5660 5671 5680 5689 5698 5706 5713 5727 5740 5748 5761 5771 5783 5791 5796 5803 5808 5812 5816 5818 5820 5824 5826 5824 5825 5826 5826 5826 5825 5824 5821 5815 5811 5807 5802 5798 5792 5787
5637 5635 5632 5630 5626 5626 5631 5633 5635 5642 5650 5658 5666 5674 5683 5693 5701 5711 5719 5735 5750 5760 5770 5777 5783 5791 5795 5799 5802 5808 5811 5814 5816 5816 5817 5817 5818 5819 5820 5819 5817 5811 5808 5804 5801 5794 5788 5781 5772
5639 5636 5635 5634 5631 5627 5631 5637 5636 5644 5648 5654 5660 5670 5678 5687 5697 5708 5718 5736 5751 5753 5761 5770 5776 5783 5785 5791 5795 5802 5805 5804 5806 5809 5811 5812 5812 5813 5812 5811 5808 5805 5800 5795 5790 5784 5777 5769 5762
5639 5638 5637 5630 5625 5628 5629 5635 5638 5646 5649 5653 5658 5663 5672 5684 5701 5709 5712 5726 5737 5749 5757 5763 5765 5773 5779 5787 5791 5793 5793 5796 5800 5803 5805 5806 5807 5807 5806 5803 5800 5795 5791 5786 5780 5774 5767 5759 5753